カタログに戻る

STARLINK-30595

運用中通信VLEO
NORAD 58111·PAYLOAD·🇺🇸 United States

打ち上げ Oct 21, 2023 から Vandenberg Space Force Base

Loading…

次のパス (今後24時間)

TLE

最新Source: CelesTrak SupGP

元期: Sep 15, 2026, 02:43 UTC

1 58111C 23161Q   26258.11368056  .00058834  00000+0  17383-2 0  2581
2 58111  53.1593   5.0924 0000989  77.3241 208.8546 15.34361539    18

AllMySatでSTARLINK-30595をリアルタイム追跡

Download on the App Store